Regional Weather Roundup
Issued by NWS

Home | Current Version | Previous Version | Text Only | Print | Product List | Glossary Off
Versions: 1 2 3 4 5 6 7 8 9 10 11 12 13 14 15 16 17 18 19 20 21 22 23 24 25 26 27 28 29 30 31 32 33 34 35 36 37 38 39 40 41 42 43 44 45 46 47 48 49 50

000
ASUS44 KMEG 270110
RWRTN
TENNESSEE HOURLY STATE WEATHER ROUNDUP
NATIONAL WEATHER SERVICE MEMPHIS TN
800 PM CDT FRI AUG 26 2016

TNZ002-004-019-021-049-052-054-088>092-270200-
WEST TENNESSEE

CITY           SKY/WX    TMP DP  RH WIND       PRES   REMARKS
MEMPHIS INTL   CLOUDY    77  71  82 E7        30.04F
NWS MEMPHIS      N/A     74 N/A N/A MISG        N/A
JACKSON        LGT RAIN  74  73  97 N6        30.08F
DYERSBURG      CLOUDY   N/A N/A N/A MISG        N/A
UNION CITY     PTCLDY    73  72  94 CALM      30.07S
PARIS          MOCLDY    75  70  83 S23       30.14R
LEXINGTON      CLOUDY    72  72 100 NW7       30.10S
$$

TNZ008-025-027-028-033-062-065-066-270200-
NORTH MIDDLE TENNESSEE

CITY           SKY/WX    TMP DP  RH WIND       PRES   REMARKS
NASHVILLE      MOCLDY    87  74  64 E3        30.06R HX  95
CLARKSVILLE    CLOUDY    84  74  71 E3        30.06R HX  91
SMYRNA         MOCLDY    86  73  66 NE6       30.06R THUNDER HX  93
COOKEVILLE     CLEAR     81  75  83 CALM      30.09R
CROSSVILLE     CLOUDY    79  72  79 E3        30.15R
$$

TNZ061-075-076-078-094-096-097-270200-
SOUTH MIDDLE TENNESSEE

CITY           SKY/WX    TMP DP  RH WIND       PRES   REMARKS
FAYETTEVILLE   CLOUDY    73  73 100 CALM      30.12R
TULLAHOMA        N/A     79  70  73 SW7       30.12R
WINCHESTER     PTCLDY    79  73  83 W6        30.10R
MCMINNVILLE    CLEAR     82  75  78 CALM      30.09R
COLUMBIA       MOCLDY   N/A N/A N/A S24G32    30.10R
SHELBYVILLE    CLEAR     84  79  84 S8        30.09R HX  96
$$

TNZ017-018-042-046-047-270200-
NORTHEAST TENNESSEE

CITY           SKY/WX    TMP DP  RH WIND       PRES   REMARKS
TRI CITIES     PTCLDY    80  69  69 CALM      30.14R
ELIZABETHTON   PTCLDY    79  72  78 NE5       30.14R
$$

TNZ012-013-036-069-073-074-270200-
CENTRAL EAST TENNESSEE

CITY           SKY/WX    TMP DP  RH WIND       PRES   REMARKS
KNOXVILLE      CLOUDY    86  67  52 E3        30.08R
OAK RIDGE      CLEAR     84  73  69 CALM      30.10R HX  90
GATLINBURG     CLEAR     82  68  61 CALM      30.09R
MORRISTOWN     CLEAR     84  68  58 CALM      30.11R
$$

TNZ083-085-099-270200-
SOUTHEAST TENNESSEE

CITY           SKY/WX    TMP DP  RH WIND       PRES   REMARKS
CHATTANOOGA    MOCLDY    79  72  79 N7        30.08R
$$

SKY/WX REPORTED AS FAIR MEANS FEW OR NO CLOUDS BELOW
12 THOUSAND FEET.




USA.gov is the U.S. government's official web portal to all federal, state and local government web resources and services.